Location: Bord�res
(43.2000°N, 0.2167°W)
Time: 14:57:46
(UTC+00:00)

SeaSat 1 - Pass Details

Date: 03 March 2021
Orbit: 744 x 747 km, 108.0° (Epoch: 14 April)

Event Time Altitude Azimuth Distance (km) Brightness Sun altitude
Rises 19:34:57 0° 22° (NNE) 3,200 5.6 -19.4°
Reaches altitude 10° 19:37:16 10° 18° (NNE) 2,272 4.9 -19.8°
Maximum altitude 19:42:04 55° 302° (WNW) 900 3.1 -20.7°
Drops below altitude 10° 19:46:52 10° 226° (SW) 2,260 5.3 -21.5°
Sets 19:49:09 0° 221° (SW) 3,180 6.1 -21.9°
